Time,TemperatureF,DewpointF,PressureIn,WindDirection,WindDirectionDegrees,WindSpeedMPH,WindSpeedGustMPH,Humidity,HourlyPrecipIn,Conditions,Clouds,dailyrainin,SoftwareType,DateUTC
2013-03-30 00:03:00,41.6,34.6,30.09,SSE,162,2.0,5.0,76,0.00,,,0.00,Wunderground v.1.15,2013-03-30 05:03:00,
2013-03-30 00:09:00,41.6,34.6,30.09,SSE,153,2.0,5.0,76,0.00,,,0.00,Wunderground v.1.15,2013-03-30 05:09:00,
2013-03-30 00:15:00,41.6,34.3,30.09,SE,130,3.0,5.0,75,0.00,,,0.00,Wunderground v.1.15,2013-03-30 05:15:00,
2013-03-30 00:21:00,41.5,34.5,30.09,SSE,147,3.0,5.0,76,0.00,,,0.00,Wunderground v.1.15,2013-03-30 05:21:00,
2013-03-30 00:27:00,41.1,34.1,30.09,SSE,159,3.0,5.0,76,0.00,,,0.00,Wunderground v.1.15,2013-03-30 05:27:00,
2013-03-30 00:33:00,40.9,34.2,30.08,SE,139,3.0,5.0,77,0.00,,,0.00,Wunderground v.1.15,2013-03-30 05:33:00,
2013-03-30 00:39:00,40.8,34.1,30.08,SSE,156,3.0,5.0,77,0.00,,,0.00,Wunderground v.1.15,2013-03-30 05:39:00,
2013-03-30 00:45:00,41.0,34.0,30.08,SE,136,4.0,6.0,76,0.00,,,0.00,Wunderground v.1.15,2013-03-30 05:45:00,
2013-03-30 00:51:00,41.0,34.0,30.07,ESE,115,4.0,7.0,76,0.00,,,0.00,Wunderground v.1.15,2013-03-30 05:51:00,
2013-03-30 00:57:00,41.1,34.1,30.07,SE,128,3.0,7.0,76,0.00,,,0.00,Wunderground v.1.15,2013-03-30 05:57:00,
2013-03-30 01:03:00,41.2,33.9,30.07,SSE,165,3.0,6.0,75,0.00,,,0.00,Wunderground v.1.15,2013-03-30 06:03:00,
2013-03-30 01:09:00,41.3,34.0,30.07,SSE,147,3.0,5.0,75,0.00,,,0.00,Wunderground v.1.15,2013-03-30 06:09:00,
2013-03-30 01:15:00,41.2,33.9,30.06,SSE,153,3.0,6.0,75,0.00,,,0.00,Wunderground v.1.15,2013-03-30 06:15:00,
2013-03-30 01:21:00,41.2,33.9,30.06,SE,134,3.0,5.0,75,0.00,,,0.00,Wunderground v.1.15,2013-03-30 06:21:00,
2013-03-30 01:27:00,41.0,33.7,30.06,SE,145,3.0,5.0,75,0.00,,,0.00,Wunderground v.1.15,2013-03-30 06:27:00,
2013-03-30 01:33:00,40.8,33.5,30.05,SE,134,3.0,5.0,75,0.00,,,0.00,Wunderground v.1.15,2013-03-30 06:33:00,
2013-03-30 01:39:00,40.7,33.4,30.05,SE,139,3.0,5.0,75,0.00,,,0.00,Wunderground v.1.15,2013-03-30 06:39:00,
2013-03-30 01:45:00,40.7,33.4,30.05,SE,134,3.0,5.0,75,0.00,,,0.00,Wunderground v.1.15,2013-03-30 06:45:00,
2013-03-30 01:51:00,40.6,33.3,30.05,SSE,152,3.0,5.0,75,0.00,,,0.00,Wunderground v.1.15,2013-03-30 06:51:00,
2013-03-30 01:57:00,40.6,33.3,30.05,SE,140,3.0,5.0,75,0.00,,,0.00,Wunderground v.1.15,2013-03-30 06:57:00,
2013-03-30 02:03:00,40.9,33.2,30.06,SE,138,3.0,5.0,74,0.00,,,0.00,Wunderground v.1.15,2013-03-30 07:03:00,
2013-03-30 02:09:00,41.2,33.2,30.05,SE,131,4.0,8.0,73,0.00,,,0.00,Wunderground v.1.15,2013-03-30 07:09:00,
2013-03-30 02:15:00,41.3,33.0,30.05,South,170,4.0,8.0,72,0.00,,,0.00,Wunderground v.1.15,2013-03-30 07:15:00,
2013-03-30 02:21:00,41.3,33.0,30.06,South,176,4.0,6.0,72,0.00,,,0.00,Wunderground v.1.15,2013-03-30 07:21:00,
2013-03-30 02:27:00,41.1,33.1,30.06,SE,136,4.0,6.0,73,0.00,,,0.00,Wunderground v.1.15,2013-03-30 07:27:00,
2013-03-30 02:33:00,40.8,32.8,30.06,South,176,4.0,6.0,73,0.00,,,0.00,Wunderground v.1.15,2013-03-30 07:33:00,
2013-03-30 02:39:00,40.6,33.0,30.05,SSE,147,4.0,5.0,74,0.00,,,0.00,Wunderground v.1.15,2013-03-30 07:39:00,
2013-03-30 02:45:00,40.6,33.0,30.05,East,101,4.0,7.0,74,0.00,,,0.00,Wunderground v.1.15,2013-03-30 07:45:00,
2013-03-30 02:51:00,40.5,32.9,30.05,ESE,113,5.0,8.0,74,0.00,,,0.00,Wunderground v.1.15,2013-03-30 07:51:00,
2013-03-30 02:57:00,40.3,32.7,30.04,SSE,159,4.0,8.0,74,0.00,,,0.00,Wunderground v.1.15,2013-03-30 07:57:00,
2013-03-30 03:03:00,40.1,32.8,30.04,SE,141,4.0,5.0,75,0.00,,,0.00,Wunderground v.1.15,2013-03-30 08:03:00,
2013-03-30 03:09:00,39.9,32.6,30.04,SSE,155,3.0,5.0,75,0.00,,,0.00,Wunderground v.1.15,2013-03-30 08:09:00,
2013-03-30 03:15:00,39.8,32.5,30.04,SSE,148,4.0,6.0,75,0.00,,,0.00,Wunderground v.1.15,2013-03-30 08:15:00,
2013-03-30 03:21:00,39.7,32.4,30.04,SE,134,4.0,6.0,75,0.00,,,0.00,Wunderground v.1.15,2013-03-30 08:21:00,
2013-03-30 03:27:00,39.6,32.7,30.03,SSE,149,4.0,6.0,76,0.00,,,0.00,Wunderground v.1.15,2013-03-30 08:27:00,
2013-03-30 03:33:00,39.5,32.6,30.03,SSE,153,4.0,5.0,76,0.00,,,0.00,Wunderground v.1.15,2013-03-30 08:33:00,
2013-03-30 03:39:00,39.4,32.5,30.03,SE,131,4.0,4.0,76,0.00,,,0.00,Wunderground v.1.15,2013-03-30 08:39:00,
2013-03-30 03:45:00,39.1,32.5,30.02,SE,137,4.0,5.0,77,0.00,,,0.00,Wunderground v.1.15,2013-03-30 08:45:00,
2013-03-30 03:51:00,38.8,32.2,30.02,SE,124,4.0,5.0,77,0.00,,,0.00,Wunderground v.1.15,2013-03-30 08:51:00,
2013-03-30 03:57:00,38.7,32.4,30.01,SE,129,4.0,5.0,78,0.00,,,0.00,Wunderground v.1.15,2013-03-30 08:57:00,
2013-03-30 04:03:00,38.5,32.2,30.01,SE,134,5.0,5.0,78,0.00,,,0.00,Wunderground v.1.15,2013-03-30 09:03:00,
2013-03-30 04:09:00,38.3,32.4,30.01,SE,141,5.0,5.0,79,0.00,,,0.00,Wunderground v.1.15,2013-03-30 09:09:00,
2013-03-30 04:15:00,38.2,32.3,30.00,SE,138,5.0,7.0,79,0.00,,,0.00,Wunderground v.1.15,2013-03-30 09:15:00,
2013-03-30 04:21:00,38.0,32.4,30.00,ESE,113,5.0,5.0,80,0.00,,,0.00,Wunderground v.1.15,2013-03-30 09:21:00,
2013-03-30 04:27:00,37.9,32.3,29.99,SE,138,4.0,5.0,80,0.00,,,0.00,Wunderground v.1.15,2013-03-30 09:27:00,
2013-03-30 04:35:00,37.9,32.6,29.99,SE,135,5.0,5.0,81,0.00,,,0.00,Wunderground v.1.15,2013-03-30 09:35:00,
2013-03-30 04:41:00,37.9,32.6,29.99,ESE,105,3.0,5.0,81,0.00,,,0.00,Wunderground v.1.15,2013-03-30 09:41:00,
2013-03-30 04:47:00,38.1,32.8,29.99,SSE,148,3.0,5.0,81,0.00,,,0.00,Wunderground v.1.15,2013-03-30 09:47:00,
2013-03-30 04:53:00,38.3,33.0,29.99,SE,134,3.0,5.0,81,0.00,,,0.00,Wunderground v.1.15,2013-03-30 09:53:00,
2013-03-30 04:59:00,38.5,33.5,29.99,SSE,162,3.0,3.0,82,0.00,,,0.00,Wunderground v.1.15,2013-03-30 09:59:00,
2013-03-30 05:05:00,38.5,33.5,29.99,SSE,158,3.0,5.0,82,0.00,,,0.00,Wunderground v.1.15,2013-03-30 10:05:00,
2013-03-30 05:11:00,38.7,33.7,29.99,SSE,165,3.0,5.0,82,0.00,,,0.00,Wunderground v.1.15,2013-03-30 10:11:00,
2013-03-30 05:17:00,38.7,34.0,29.99,SSE,155,2.0,5.0,83,0.00,,,0.00,Wunderground v.1.15,2013-03-30 10:17:00,
2013-03-30 05:23:00,38.8,34.1,29.99,SSE,147,2.0,5.0,83,0.00,,,0.00,Wunderground v.1.15,2013-03-30 10:23:00,
2013-03-30 05:29:00,38.7,34.0,29.99,SE,129,2.0,2.0,83,0.00,,,0.00,Wunderground v.1.15,2013-03-30 10:29:00,
2013-03-30 05:35:00,38.6,34.2,29.98,SE,137,2.0,5.0,84,0.00,,,0.00,Wunderground v.1.15,2013-03-30 10:35:00,
2013-03-30 05:41:00,38.6,34.2,29.98,SE,143,2.0,5.0,84,0.00,,,0.00,Wunderground v.1.15,2013-03-30 10:41:00,
2013-03-30 05:47:00,38.6,34.5,29.98,SE,141,3.0,5.0,85,0.00,,,0.00,Wunderground v.1.15,2013-03-30 10:47:00,
2013-03-30 05:53:00,38.5,34.4,29.98,SE,135,2.0,5.0,85,0.00,,,0.00,Wunderground v.1.15,2013-03-30 10:53:00,
2013-03-30 05:59:00,38.4,34.6,29.97,SE,135,3.0,5.0,86,0.00,,,0.00,Wunderground v.1.15,2013-03-30 10:59:00,
2013-03-30 06:05:00,38.5,34.7,29.97,SE,134,3.0,5.0,86,0.00,,,0.00,Wunderground v.1.15,2013-03-30 11:05:00,
2013-03-30 06:11:00,38.6,34.8,29.97,SE,127,3.0,5.0,86,0.00,,,0.00,Wunderground v.1.15,2013-03-30 11:11:00,
2013-03-30 06:17:00,38.8,35.0,29.97,SE,128,3.0,5.0,86,0.00,,,0.00,Wunderground v.1.15,2013-03-30 11:17:00,
2013-03-30 06:23:00,39.0,35.2,29.97,SE,129,3.0,6.0,86,0.00,,,0.00,Wunderground v.1.15,2013-03-30 11:23:00,
2013-03-30 06:29:00,39.1,35.3,29.97,ESE,117,3.0,6.0,86,0.00,,,0.00,Wunderground v.1.15,2013-03-30 11:29:00,
2013-03-30 06:35:00,39.3,35.5,29.96,SSE,150,3.0,6.0,86,0.00,,,0.00,Wunderground v.1.15,2013-03-30 11:35:00,
2013-03-30 06:41:00,39.2,35.7,29.96,SE,141,3.0,5.0,87,0.00,,,0.00,Wunderground v.1.15,2013-03-30 11:41:00,
2013-03-30 06:47:00,39.2,35.7,29.96,SE,143,3.0,5.0,87,0.00,,,0.00,Wunderground v.1.15,2013-03-30 11:47:00,
2013-03-30 06:53:00,39.1,35.6,29.96,SE,135,3.0,5.0,87,0.00,,,0.00,Wunderground v.1.15,2013-03-30 11:53:00,
2013-03-30 06:59:00,39.1,35.6,29.96,East,94,4.0,4.0,87,0.00,,,0.00,Wunderground v.1.15,2013-03-30 11:59:00,
2013-03-30 07:05:00,39.2,35.9,29.96,SE,129,4.0,5.0,88,0.00,,,0.00,Wunderground v.1.15,2013-03-30 12:05:00,
2013-03-30 07:11:00,39.3,36.0,29.96,SSE,155,3.0,5.0,88,0.00,,,0.00,Wunderground v.1.15,2013-03-30 12:11:00,
2013-03-30 07:17:00,39.5,36.2,29.97,SE,135,3.0,5.0,88,0.00,,,0.00,Wunderground v.1.15,2013-03-30 12:17:00,
2013-03-30 07:23:00,39.6,36.3,29.97,South,179,2.0,5.0,88,0.00,,,0.00,Wunderground v.1.15,2013-03-30 12:23:00,
2013-03-30 07:29:00,39.7,36.4,29.97,SE,131,2.0,5.0,88,0.00,,,0.00,Wunderground v.1.15,2013-03-30 12:29:00,
2013-03-30 07:35:00,39.9,36.6,29.98,South,186,2.0,5.0,88,0.00,,,0.00,Wunderground v.1.15,2013-03-30 12:35:00,
2013-03-30 07:41:00,39.9,36.6,29.97,SSE,150,2.0,5.0,88,0.00,,,0.00,Wunderground v.1.15,2013-03-30 12:41:00,
2013-03-30 07:47:00,40.1,36.8,29.97,SSE,152,1.0,5.0,88,0.00,,,0.00,Wunderground v.1.15,2013-03-30 12:47:00,
2013-03-30 07:53:00,40.2,36.9,29.97,SE,131,3.0,5.0,88,0.00,,,0.00,Wunderground v.1.15,2013-03-30 12:53:00,
2013-03-30 07:59:00,40.2,36.9,29.97,SE,146,2.0,5.0,88,0.00,,,0.00,Wunderground v.1.15,2013-03-30 12:59:00,
2013-03-30 08:05:00,40.1,36.8,29.97,ESE,120,2.0,5.0,88,0.00,,,0.00,Wunderground v.1.15,2013-03-30 13:05:00,
2013-03-30 08:11:00,40.1,36.8,29.96,SE,129,2.0,5.0,88,0.00,,,0.00,Wunderground v.1.15,2013-03-30 13:11:00,
2013-03-30 08:17:00,40.3,37.0,29.97,SSE,152,3.0,5.0,88,0.00,,,0.00,Wunderground v.1.15,2013-03-30 13:17:00,
2013-03-30 08:23:00,40.5,37.2,29.96,SE,127,3.0,5.0,88,0.00,,,0.00,Wunderground v.1.15,2013-03-30 13:23:00,
2013-03-30 08:29:00,40.6,37.3,29.96,ESE,104,3.0,3.0,88,0.00,,,0.00,Wunderground v.1.15,2013-03-30 13:29:00,
2013-03-30 08:35:00,40.7,37.4,29.96,SSE,147,3.0,5.0,88,0.00,,,0.00,Wunderground v.1.15,2013-03-30 13:35:00,
2013-03-30 08:41:00,40.9,37.3,29.96,ESE,103,3.0,4.0,87,0.00,,,0.00,Wunderground v.1.15,2013-03-30 13:41:00,
2013-03-30 08:47:00,41.2,37.6,29.96,SSE,152,3.0,5.0,87,0.00,,,0.00,Wunderground v.1.15,2013-03-30 13:47:00,
2013-03-30 08:53:00,41.3,37.7,29.95,ESE,121,3.0,5.0,87,0.00,,,0.00,Wunderground v.1.15,2013-03-30 13:53:00,
2013-03-30 08:59:00,41.4,37.8,29.95,SSE,166,3.0,3.0,87,0.00,,,0.00,Wunderground v.1.15,2013-03-30 13:59:00,
2013-03-30 09:05:00,41.5,37.9,29.95,SE,137,3.0,5.0,87,0.00,,,0.00,Wunderground v.1.15,2013-03-30 14:05:00,
2013-03-30 09:11:00,41.5,37.9,29.95,South,190,3.0,5.0,87,0.00,,,0.00,Wunderground v.1.15,2013-03-30 14:11:00,
2013-03-30 09:17:00,41.7,38.1,29.95,SE,131,3.0,5.0,87,0.00,,,0.00,Wunderground v.1.15,2013-03-30 14:17:00,
2013-03-30 09:23:00,41.9,38.3,29.94,SE,139,2.0,5.0,87,0.00,,,0.00,Wunderground v.1.15,2013-03-30 14:23:00,
2013-03-30 09:29:00,42.0,38.4,29.94,SSE,152,3.0,5.0,87,0.00,,,0.00,Wunderground v.1.15,2013-03-30 14:29:00,
2013-03-30 09:35:00,42.2,38.9,29.93,SE,144,2.0,5.0,88,0.00,,,0.00,Wunderground v.1.15,2013-03-30 14:35:00,
2013-03-30 09:41:00,42.5,39.2,29.93,SSE,155,2.0,5.0,88,0.00,,,0.00,Wunderground v.1.15,2013-03-30 14:41:00,
2013-03-30 09:47:00,42.8,39.8,29.93,ESE,122,2.0,5.0,89,0.00,,,0.00,Wunderground v.1.15,2013-03-30 14:47:00,
2013-03-30 09:53:00,43.1,40.1,29.93,SSE,163,2.0,5.0,89,0.00,,,0.00,Wunderground v.1.15,2013-03-30 14:53:00,
2013-03-30 09:59:00,43.6,40.6,29.93,SSE,155,2.0,2.0,89,0.00,,,0.00,Wunderground v.1.15,2013-03-30 14:59:00,
2013-03-30 10:05:00,44.0,40.7,29.92,SSE,159,1.0,5.0,88,0.00,,,0.00,Wunderground v.1.15,2013-03-30 15:05:00,
2013-03-30 10:11:00,44.3,41.0,29.92,SE,142,2.0,3.0,88,0.00,,,0.00,Wunderground v.1.15,2013-03-30 15:11:00,
2013-03-30 10:17:00,44.7,41.4,29.91,SE,142,3.0,5.0,88,0.00,,,0.00,Wunderground v.1.15,2013-03-30 15:17:00,
2013-03-30 10:23:00,44.9,41.3,29.91,SSE,160,3.0,5.0,87,0.00,,,0.00,Wunderground v.1.15,2013-03-30 15:23:00,
2013-03-30 10:29:00,45.2,41.9,29.91,South,169,4.0,4.0,88,0.00,,,0.00,Wunderground v.1.15,2013-03-30 15:29:00,
2013-03-30 10:35:00,45.7,42.3,29.91,SSE,165,4.0,6.0,88,0.00,,,0.00,Wunderground v.1.15,2013-03-30 15:35:00,
2013-03-30 10:41:00,46.3,42.9,29.90,SSW,208,4.0,8.0,88,0.00,,,0.00,Wunderground v.1.15,2013-03-30 15:41:00,
2013-03-30 10:47:00,46.7,43.3,29.90,East,91,4.0,8.0,88,0.00,,,0.00,Wunderground v.1.15,2013-03-30 15:47:00,
2013-03-30 10:53:00,47.1,43.7,29.91,South,186,4.0,5.0,88,0.00,,,0.00,Wunderground v.1.15,2013-03-30 15:53:00,
2013-03-30 10:59:00,47.3,43.9,29.91,SSW,193,3.0,3.0,88,0.00,,,0.00,Wunderground v.1.15,2013-03-30 15:59:00,
2013-03-30 11:05:00,47.5,44.1,29.90,WSW,250,3.0,5.0,88,0.00,,,0.00,Wunderground v.1.15,2013-03-30 16:05:00,
2013-03-30 11:11:00,47.6,43.9,29.90,SW,218,4.0,6.0,87,0.00,,,0.00,Wunderground v.1.15,2013-03-30 16:11:00,
2013-03-30 11:17:00,47.7,44.0,29.90,South,176,5.0,7.0,87,0.00,,,0.00,Wunderground v.1.15,2013-03-30 16:17:00,
2013-03-30 11:23:00,47.7,44.0,29.90,South,181,4.0,5.0,87,0.00,,,0.00,Wunderground v.1.15,2013-03-30 16:23:00,
2013-03-30 11:29:00,47.7,44.3,29.89,SSE,167,4.0,6.0,88,0.00,,,0.00,Wunderground v.1.15,2013-03-30 16:29:00,
2013-03-30 11:35:00,47.8,44.4,29.89,SSE,162,5.0,6.0,88,0.00,,,0.00,Wunderground v.1.15,2013-03-30 16:35:00,
2013-03-30 11:41:00,48.0,44.3,29.88,South,170,6.0,6.0,87,0.00,,,0.00,Wunderground v.1.15,2013-03-30 16:41:00,
2013-03-30 11:47:00,48.1,44.4,29.88,South,177,5.0,8.0,87,0.00,,,0.00,Wunderground v.1.15,2013-03-30 16:47:00,
2013-03-30 11:53:00,48.0,44.6,29.88,SSE,162,5.0,5.0,88,0.00,,,0.00,Wunderground v.1.15,2013-03-30 16:53:00,
2013-03-30 11:59:00,47.9,44.5,29.88,SSE,155,4.0,6.0,88,0.00,,,0.00,Wunderground v.1.15,2013-03-30 16:59:00,
2013-03-30 12:05:00,47.9,44.8,29.88,SSW,212,5.0,7.0,89,0.00,,,0.00,Wunderground v.1.15,2013-03-30 17:05:00,
2013-03-30 12:12:00,47.8,45.0,29.88,South,186,4.0,5.0,90,0.00,,,0.00,Wunderground v.1.15,2013-03-30 17:12:00,
2013-03-30 12:17:00,47.7,44.9,29.88,SSW,193,4.0,7.0,90,0.00,,,0.01,Wunderground v.1.15,2013-03-30 17:17:00,
2013-03-30 12:23:00,47.6,45.1,29.88,SW,227,4.0,7.0,91,0.00,,,0.01,Wunderground v.1.15,2013-03-30 17:23:00,
2013-03-30 12:29:00,47.6,45.1,29.88,SSE,149,4.0,6.0,91,0.08,,,0.02,Wunderground v.1.15,2013-03-30 17:29:00,
2013-03-30 12:35:00,47.6,45.4,29.88,South,179,3.0,6.0,92,0.06,,,0.02,Wunderground v.1.15,2013-03-30 17:35:00,
2013-03-30 12:41:00,47.8,45.6,29.87,South,181,3.0,5.0,92,0.04,,,0.02,Wunderground v.1.15,2013-03-30 17:41:00,
2013-03-30 12:47:00,48.1,45.9,29.87,South,170,4.0,5.0,92,0.00,,,0.02,Wunderground v.1.15,2013-03-30 17:47:00,
2013-03-30 12:53:00,48.4,46.2,29.87,SW,227,4.0,7.0,92,0.00,,,0.02,Wunderground v.1.15,2013-03-30 17:53:00,
2013-03-30 12:59:00,48.5,46.3,29.87,South,169,4.0,5.0,92,0.00,,,0.03,Wunderground v.1.15,2013-03-30 17:59:00,
2013-03-30 13:05:00,48.6,46.4,29.87,SSE,147,4.0,6.0,92,0.00,,,0.03,Wunderground v.1.15,2013-03-30 18:05:00,
2013-03-30 13:11:00,48.6,46.4,29.87,SSE,149,4.0,5.0,92,0.05,,,0.04,Wunderground v.1.15,2013-03-30 18:11:00,
2013-03-30 13:17:00,48.6,46.1,29.87,South,170,4.0,5.0,91,0.05,,,0.04,Wunderground v.1.15,2013-03-30 18:17:00,
2013-03-30 13:23:00,48.7,46.2,29.86,South,174,4.0,8.0,91,0.04,,,0.04,Wunderground v.1.15,2013-03-30 18:23:00,
2013-03-30 13:29:00,48.6,46.1,29.86,SSE,156,4.0,4.0,91,0.00,,,0.04,Wunderground v.1.15,2013-03-30 18:29:00,
2013-03-30 13:35:00,48.7,46.2,29.86,SSE,155,4.0,5.0,91,0.00,,,0.04,Wunderground v.1.15,2013-03-30 18:35:00,
2013-03-30 13:41:00,48.7,45.9,29.86,WSW,245,4.0,5.0,90,0.00,,,0.04,Wunderground v.1.15,2013-03-30 18:41:00,
2013-03-30 13:47:00,48.6,45.5,29.86,South,187,4.0,5.0,89,0.00,,,0.04,Wunderground v.1.15,2013-03-30 18:47:00,
2013-03-30 13:53:00,48.4,45.3,29.85,South,188,4.0,6.0,89,0.00,,,0.04,Wunderground v.1.15,2013-03-30 18:53:00,
2013-03-30 13:59:00,48.2,44.8,29.85,SW,228,4.0,4.0,88,0.00,,,0.05,Wunderground v.1.15,2013-03-30 18:59:00,
2013-03-30 14:05:00,47.9,44.5,29.85,SSW,193,4.0,5.0,88,0.00,,,0.05,Wunderground v.1.15,2013-03-30 19:05:00,
2013-03-30 14:11:00,47.5,44.1,29.85,South,188,4.0,5.0,88,0.06,,,0.06,Wunderground v.1.15,2013-03-30 19:11:00,
2013-03-30 14:17:00,47.5,44.1,29.85,South,176,4.0,5.0,88,0.06,,,0.06,Wunderground v.1.15,2013-03-30 19:17:00,
2013-03-30 14:23:00,47.5,44.1,29.84,SSW,201,4.0,5.0,88,0.04,,,0.06,Wunderground v.1.15,2013-03-30 19:23:00,
2013-03-30 14:29:00,47.5,44.1,29.84,SSW,198,4.0,5.0,88,0.00,,,0.06,Wunderground v.1.15,2013-03-30 19:29:00,
2013-03-30 14:35:00,47.5,44.1,29.84,South,188,3.0,5.0,88,0.00,,,0.07,Wunderground v.1.15,2013-03-30 19:35:00,
2013-03-30 14:41:00,47.4,44.3,29.84,SSW,192,3.0,4.0,89,0.00,,,0.07,Wunderground v.1.15,2013-03-30 19:41:00,
2013-03-30 14:47:00,47.4,44.3,29.84,SSW,195,3.0,5.0,89,0.04,,,0.08,Wunderground v.1.15,2013-03-30 19:47:00,
2013-03-30 14:53:00,47.3,44.5,29.84,South,169,4.0,5.0,90,0.04,,,0.08,Wunderground v.1.15,2013-03-30 19:53:00,
2013-03-30 14:59:00,47.2,44.7,29.84,SSE,158,3.0,3.0,91,0.04,,,0.08,Wunderground v.1.15,2013-03-30 19:59:00,
2013-03-30 15:05:00,47.1,44.9,29.83,SSW,210,3.0,9.0,92,0.00,,,0.08,Wunderground v.1.15,2013-03-30 20:05:00,
2013-03-30 15:11:00,47.2,45.3,29.83,South,169,3.0,5.0,93,0.00,,,0.09,Wunderground v.1.15,2013-03-30 20:11:00,
2013-03-30 15:17:00,47.2,45.3,29.83,West,267,3.0,5.0,93,0.00,,,0.09,Wunderground v.1.15,2013-03-30 20:17:00,
2013-03-30 15:23:00,47.2,45.3,29.83,SSE,153,2.0,5.0,93,0.00,,,0.09,Wunderground v.1.15,2013-03-30 20:23:00,
2013-03-30 15:29:00,47.3,45.4,29.83,SW,222,2.0,2.0,93,0.00,,,0.09,Wunderground v.1.15,2013-03-30 20:29:00,
2013-03-30 15:35:00,47.3,45.7,29.83,SW,229,3.0,5.0,94,0.00,,,0.09,Wunderground v.1.15,2013-03-30 20:35:00,
2013-03-30 15:41:00,47.3,45.7,29.82,South,190,4.0,4.0,94,0.00,,,0.09,Wunderground v.1.15,2013-03-30 20:41:00,
2013-03-30 15:47:00,47.3,45.7,29.82,SW,219,3.0,5.0,94,0.00,,,0.09,Wunderground v.1.15,2013-03-30 20:47:00,
2013-03-30 15:53:00,47.2,45.6,29.83,SSE,167,3.0,6.0,94,0.00,,,0.09,Wunderground v.1.15,2013-03-30 20:53:00,
2013-03-30 15:59:00,47.1,45.7,29.83,SW,225,4.0,4.0,95,0.00,,,0.09,Wunderground v.1.15,2013-03-30 20:59:00,
2013-03-30 16:05:00,47.1,45.7,29.82,SSW,197,3.0,5.0,95,0.00,,,0.09,Wunderground v.1.15,2013-03-30 21:05:00,
2013-03-30 16:11:00,47.0,45.6,29.83,West,263,3.0,5.0,95,0.00,,,0.09,Wunderground v.1.15,2013-03-30 21:11:00,
2013-03-30 16:17:00,46.9,45.5,29.82,SSE,149,3.0,5.0,95,0.00,,,0.09,Wunderground v.1.15,2013-03-30 21:17:00,
2013-03-30 16:23:00,46.8,45.7,29.82,West,262,2.0,5.0,96,0.00,,,0.09,Wunderground v.1.15,2013-03-30 21:23:00,
2013-03-30 16:29:00,46.8,45.7,29.82,SSW,207,3.0,5.0,96,0.00,,,0.10,Wunderground v.1.15,2013-03-30 21:29:00,
2013-03-30 16:35:00,46.9,45.8,29.82,SSW,212,3.0,5.0,96,0.00,,,0.10,Wunderground v.1.15,2013-03-30 21:35:00,
2013-03-30 16:41:00,47.0,45.9,29.82,West,266,3.0,5.0,96,0.00,,,0.10,Wunderground v.1.15,2013-03-30 21:41:00,
2013-03-30 16:47:00,47.0,45.9,29.81,WSW,248,3.0,5.0,96,0.00,,,0.10,Wunderground v.1.15,2013-03-30 21:47:00,
2013-03-30 16:53:00,47.0,45.9,29.82,SW,214,2.0,5.0,96,0.00,,,0.10,Wunderground v.1.15,2013-03-30 21:53:00,
2013-03-30 16:59:00,46.9,45.8,29.81,West,259,2.0,5.0,96,0.00,,,0.10,Wunderground v.1.15,2013-03-30 21:59:00,
2013-03-30 17:05:00,47.0,45.9,29.81,WNW,283,1.0,5.0,96,0.00,,,0.10,Wunderground v.1.15,2013-03-30 22:05:00,
2013-03-30 17:11:00,46.9,45.8,29.81,West,267,0.0,5.0,96,0.00,,,0.10,Wunderground v.1.15,2013-03-30 22:11:00,
2013-03-30 17:17:00,46.9,45.8,29.81,West,259,2.0,5.0,96,0.00,,,0.10,Wunderground v.1.15,2013-03-30 22:17:00,
2013-03-30 17:23:00,46.9,45.8,29.80,WNW,287,3.0,5.0,96,0.00,,,0.10,Wunderground v.1.15,2013-03-30 22:23:00,
2013-03-30 17:29:00,46.8,45.7,29.80,WSW,245,2.0,2.0,96,0.00,,,0.10,Wunderground v.1.15,2013-03-30 22:29:00,
2013-03-30 17:35:00,46.9,46.1,29.80,WSW,248,1.0,5.0,97,0.00,,,0.10,Wunderground v.1.15,2013-03-30 22:35:00,
2013-03-30 17:42:00,46.9,45.8,29.80,West,266,1.0,5.0,96,0.00,,,0.10,Wunderground v.1.15,2013-03-30 22:42:00,
2013-03-30 17:47:00,47.0,46.2,29.80,SW,232,2.0,5.0,97,0.00,,,0.10,Wunderground v.1.15,2013-03-30 22:47:00,
2013-03-30 17:53:00,47.1,46.3,29.80,WSW,242,2.0,5.0,97,0.00,,,0.10,Wunderground v.1.15,2013-03-30 22:53:00,
2013-03-30 17:59:00,47.2,46.4,29.80,SW,235,2.0,5.0,97,0.00,,,0.10,Wunderground v.1.15,2013-03-30 22:59:00,
2013-03-30 18:05:00,47.3,46.5,29.80,West,269,2.0,5.0,97,0.00,,,0.10,Wunderground v.1.15,2013-03-30 23:05:00,
2013-03-30 18:11:00,47.3,46.5,29.80,WSW,250,2.0,5.0,97,0.00,,,0.10,Wunderground v.1.15,2013-03-30 23:11:00,
2013-03-30 18:17:00,47.3,46.2,29.81,WSW,250,2.0,5.0,96,0.00,,,0.10,Wunderground v.1.15,2013-03-30 23:17:00,
2013-03-30 18:23:00,47.5,46.7,29.80,WSW,242,2.0,5.0,97,0.00,,,0.10,Wunderground v.1.15,2013-03-30 23:23:00,
2013-03-30 18:29:00,47.7,46.9,29.80,WSW,250,2.0,2.0,97,0.00,,,0.10,Wunderground v.1.15,2013-03-30 23:29:00,
2013-03-30 18:35:00,48.0,47.2,29.80,SW,231,1.0,5.0,97,0.00,,,0.10,Wunderground v.1.15,2013-03-30 23:35:00,
2013-03-30 18:41:00,48.2,47.1,29.80,WNW,287,1.0,5.0,96,0.00,,,0.10,Wunderground v.1.15,2013-03-30 23:41:00,
2013-03-30 18:47:00,48.5,47.4,29.80,WSW,257,0.0,5.0,96,0.00,,,0.10,Wunderground v.1.15,2013-03-30 23:47:00,
2013-03-30 18:53:00,48.4,47.3,29.80,WSW,250,0.0,5.0,96,0.00,,,0.10,Wunderground v.1.15,2013-03-30 23:53:00,
2013-03-30 18:59:00,48.3,46.9,29.80,WSW,250,0.0,5.0,95,0.00,,,0.10,Wunderground v.1.15,2013-03-30 23:59:00,
2013-03-30 19:05:00,47.8,46.4,29.80,SE,142,0.0,5.0,95,0.00,,,0.10,Wunderground v.1.15,2013-03-31 00:05:00,
2013-03-30 19:11:00,47.3,45.9,29.80,SSE,149,0.0,5.0,95,0.00,,,0.10,Wunderground v.1.15,2013-03-31 00:11:00,
2013-03-30 19:17:00,46.9,45.5,29.80,SSE,149,0.0,5.0,95,0.00,,,0.10,Wunderground v.1.15,2013-03-31 00:17:00,
2013-03-30 19:23:00,46.5,45.4,29.80,SSE,149,0.0,5.0,96,0.00,,,0.10,Wunderground v.1.15,2013-03-31 00:23:00,
2013-03-30 19:29:00,46.2,45.1,29.80,SSE,150,0.0,5.0,96,0.00,,,0.10,Wunderground v.1.15,2013-03-31 00:29:00,
2013-03-30 19:35:00,46.0,44.9,29.80,SSE,149,0.0,5.0,96,0.00,,,0.10,Wunderground v.1.15,2013-03-31 00:35:00,
2013-03-30 19:41:00,45.7,44.6,29.80,SSE,149,0.0,5.0,96,0.00,,,0.10,Wunderground v.1.15,2013-03-31 00:41:00,
2013-03-30 19:47:00,45.0,43.9,29.80,SSE,149,0.0,5.0,96,0.00,,,0.10,Wunderground v.1.15,2013-03-31 00:47:00,
2013-03-30 19:53:00,44.5,43.4,29.80,WSW,248,0.0,5.0,96,0.00,,,0.10,Wunderground v.1.15,2013-03-31 00:53:00,
2013-03-30 19:59:00,44.7,43.9,29.80,WSW,257,0.0,5.0,97,0.00,,,0.10,Wunderground v.1.15,2013-03-31 00:59:00,
2013-03-30 20:05:00,44.2,43.1,29.80,WSW,255,0.0,5.0,96,0.00,,,0.10,Wunderground v.1.15,2013-03-31 01:05:00,
2013-03-30 20:11:00,43.7,42.6,29.80,West,276,1.0,5.0,96,0.00,,,0.10,Wunderground v.1.15,2013-03-31 01:11:00,
2013-03-30 20:17:00,43.1,42.0,29.81,WSW,248,1.0,5.0,96,0.00,,,0.10,Wunderground v.1.15,2013-03-31 01:17:00,
2013-03-30 20:23:00,42.9,42.1,29.81,West,264,1.0,5.0,97,0.00,,,0.10,Wunderground v.1.15,2013-03-31 01:23:00,
2013-03-30 20:29:00,42.6,41.8,29.81,West,269,1.0,1.0,97,0.00,,,0.10,Wunderground v.1.15,2013-03-31 01:29:00,
2013-03-30 20:35:00,42.3,41.5,29.81,West,267,0.0,5.0,97,0.00,,,0.10,Wunderground v.1.15,2013-03-31 01:35:00,
2013-03-30 20:41:00,41.9,41.1,29.81,West,266,0.0,5.0,97,0.00,,,0.10,Wunderground v.1.15,2013-03-31 01:41:00,
2013-03-30 20:47:00,41.5,40.7,29.81,West,266,0.0,5.0,97,0.00,,,0.10,Wunderground v.1.15,2013-03-31 01:47:00,
2013-03-30 20:53:00,41.4,40.6,29.81,WSW,257,0.0,5.0,97,0.00,,,0.10,Wunderground v.1.15,2013-03-31 01:53:00,
2013-03-30 20:59:00,41.3,40.5,29.81,WSW,250,0.0,5.0,97,0.00,,,0.10,Wunderground v.1.15,2013-03-31 01:59:00,
2013-03-30 21:05:00,41.4,40.9,29.82,WSW,253,0.0,5.0,98,0.00,,,0.10,Wunderground v.1.15,2013-03-31 02:05:00,
2013-03-30 21:11:00,41.4,40.9,29.81,WSW,257,0.0,5.0,98,0.00,,,0.10,Wunderground v.1.15,2013-03-31 02:11:00,
2013-03-30 21:17:00,41.4,40.9,29.81,West,269,0.0,5.0,98,0.00,,,0.10,Wunderground v.1.15,2013-03-31 02:17:00,
2013-03-30 21:23:00,41.3,40.8,29.82,WSW,257,0.0,5.0,98,0.00,,,0.10,Wunderground v.1.15,2013-03-31 02:23:00,
2013-03-30 21:29:00,41.2,40.7,29.82,West,259,0.0,5.0,98,0.00,,,0.10,Wunderground v.1.15,2013-03-31 02:29:00,
2013-03-30 21:35:00,41.0,40.5,29.82,WSW,253,0.0,5.0,98,0.00,,,0.10,Wunderground v.1.15,2013-03-31 02:35:00,
2013-03-30 21:41:00,40.7,39.9,29.82,WSW,253,0.0,5.0,97,0.00,,,0.10,Wunderground v.1.15,2013-03-31 02:41:00,
2013-03-30 21:47:00,40.4,39.6,29.82,WSW,254,0.0,5.0,97,0.00,,,0.10,Wunderground v.1.15,2013-03-31 02:47:00,
2013-03-30 21:53:00,40.4,39.9,29.82,West,262,0.0,5.0,98,0.00,,,0.10,Wunderground v.1.15,2013-03-31 02:53:00,
2013-03-30 21:59:00,40.1,39.6,29.82,West,262,0.0,5.0,98,0.00,,,0.10,Wunderground v.1.15,2013-03-31 02:59:00,
2013-03-30 22:05:00,40.0,39.5,29.82,West,262,0.0,5.0,98,0.00,,,0.10,Wunderground v.1.15,2013-03-31 03:05:00,
2013-03-30 22:11:00,39.7,39.2,29.82,West,262,0.0,5.0,98,0.00,,,0.10,Wunderground v.1.15,2013-03-31 03:11:00,
2013-03-30 22:17:00,39.4,38.9,29.82,West,262,0.0,5.0,98,0.00,,,0.10,Wunderground v.1.15,2013-03-31 03:17:00,
2013-03-30 22:23:00,38.8,38.0,29.82,West,262,0.0,5.0,97,0.00,,,0.10,Wunderground v.1.15,2013-03-31 03:23:00,
2013-03-30 22:29:00,38.4,37.6,29.82,West,262,0.0,5.0,97,0.00,,,0.10,Wunderground v.1.15,2013-03-31 03:29:00,
2013-03-30 22:35:00,38.0,37.5,29.82,West,262,0.0,5.0,98,0.00,,,0.10,Wunderground v.1.15,2013-03-31 03:35:00,
2013-03-30 22:41:00,37.9,37.4,29.82,West,262,0.0,5.0,98,0.00,,,0.10,Wunderground v.1.15,2013-03-31 03:41:00,
2013-03-30 22:47:00,37.5,37.0,29.82,West,262,0.0,5.0,98,0.00,,,0.10,Wunderground v.1.15,2013-03-31 03:47:00,
2013-03-30 22:53:00,37.1,36.6,29.82,West,262,0.0,5.0,98,0.00,,,0.10,Wunderground v.1.15,2013-03-31 03:53:00,
2013-03-30 22:59:00,36.8,36.3,29.82,West,262,0.0,5.0,98,0.00,,,0.10,Wunderground v.1.15,2013-03-31 03:59:00,
2013-03-30 23:01:00,36.7,36.2,29.82,West,262,0.0,5.0,98,0.00,,,0.10,Wunderground v.1.15,2013-03-31 04:01:00,
2013-03-30 23:05:00,36.6,36.1,29.82,West,262,0.0,5.0,98,0.00,,,0.10,Wunderground v.1.15,2013-03-31 04:05:00,
2013-03-30 23:11:00,36.5,36.0,29.82,West,262,0.0,5.0,98,0.00,,,0.10,Wunderground v.1.15,2013-03-31 04:11:00,
2013-03-30 23:15:00,36.3,35.8,29.81,West,262,0.0,5.0,98,0.00,,,0.10,Wunderground v.1.15,2013-03-31 04:15:00,
2013-03-30 23:21:00,36.3,35.8,29.81,West,262,0.0,5.0,98,0.00,,,0.10,Wunderground v.1.15,2013-03-31 04:21:00,
2013-03-30 23:27:00,36.0,35.5,29.81,West,262,0.0,5.0,98,0.00,,,0.10,Wunderground v.1.15,2013-03-31 04:27:00,
2013-03-30 23:33:00,36.4,35.9,29.81,West,262,0.0,5.0,98,0.00,,,0.10,Wunderground v.1.15,2013-03-31 04:33:00,
2013-03-30 23:39:00,36.7,36.2,29.82,West,262,0.0,5.0,98,0.00,,,0.10,Wunderground v.1.15,2013-03-31 04:39:00,
2013-03-30 23:45:00,37.2,36.7,29.82,WSW,256,0.0,5.0,98,0.00,,,0.10,Wunderground v.1.15,2013-03-31 04:45:00,
2013-03-30 23:51:00,37.4,36.9,29.82,WSW,256,0.0,5.0,98,0.00,,,0.10,Wunderground v.1.15,2013-03-31 04:51:00,
2013-03-30 23:57:00,37.0,36.5,29.82,WSW,256,0.0,5.0,98,0.00,,,0.10,Wunderground v.1.15,2013-03-31 04:57:00,